Home   Weather   Piraeus   Past weeks

Flag for Greece Past Weather in Piraeus, Greece — Yesterday and Last 2 Weeks

Now
61 °F

Passing clouds.


Feels Like: 61 °F
Forecast: 62 / 80 °F
Wind: 9 mph from Northwest

Location: Elefsis Airport

Current Time: Sep 28, 2016 at 8:13:34 AM

Latest Report: Sep 28, 2016 at 6:50 AM


Visibility: N/A

Pressure: 30.27 "Hg

Humidity: 68%

Dew Point: 50 °F

Location of PiraeusLocation

Past Weather in Piraeus — Graph

°F

Piraeus Temperature Yesterday

Maximum temperature yesterday: 77 °F (at 3:50 PM)
Minimum temperature yesterday: 59 °F (at 7:20 AM)
Average temperature yesterday: 68 °F

High & Low Weather Summary for the Past Weeks

 TemperatureHumidityPressure
High95 °F (Sep 18, 1:50 PM)88% (Sep 22, 1:20 AM)30.27 "Hg (Sep 22, 1:20 AM)
Low59 °F (Sep 23, 11:50 PM)18% (Sep 15, 3:50 PM)29.71 "Hg (Sep 20, 4:20 AM)
Average74 °F47%29.99 "Hg
* Reported Sep 13 6:20 AM — Sep 28 6:50 AM, Piraeus, Weather by CustomWeather, © 2016

Note: Actual official high and low records may vary slightly from our data, if they occured in-between our weather recording intervals... More about our weather records

Advertising

Piraeus Weather History for the Previous 24 Hours

Scroll right to see more
 ConditionsComfort  
Time TempWeatherWind HumidityBarometerVisibility
6:50 AM
Wed, Sep 28
61 °FPassing clouds.9 mph68%30.27 "HgN/A
6:20 AM61 °FPassing clouds.10 mph68%30.27 "HgN/A
5:50 AM61 °FPassing clouds.7 mph68%30.27 "HgN/A
5:20 AM61 °FPassing clouds.9 mph68%30.27 "HgN/A
4:50 AM59 °FPassing clouds.9 mph63%30.27 "HgN/A
4:20 AM61 °FPassing clouds.7 mph63%30.27 "HgN/A
3:50 AM61 °FPassing clouds.7 mph63%30.27 "HgN/A
3:20 AM61 °FPassing clouds.8 mph63%30.27 "HgN/A
2:50 AM59 °FPassing clouds.7 mph63%30.27 "HgN/A
2:20 AM59 °FPassing clouds.6 mph63%30.27 "HgN/A
1:50 AM59 °FPassing clouds.6 mph63%30.27 "HgN/A
1:20 AM61 °FPassing clouds.6 mph59%30.27 "HgN/A
12:50 AM61 °FPassing clouds.6 mph59%30.27 "HgN/A
12:20 AM63 °FPassing clouds.6 mph59%30.27 "HgN/A
11:50 PM
Tue, Sep 27
64 °FPassing clouds.6 mph56%30.27 "HgN/A
11:20 PM64 °FPassing clouds.6 mph56%30.24 "HgN/A
10:50 PM64 °FPassing clouds.12 mph56%30.24 "HgN/A
10:20 PM64 °FPassing clouds.6 mph56%30.24 "HgN/A
9:50 PM64 °FPassing clouds.6 mph56%30.24 "HgN/A
9:20 PM68 °FPassing clouds.12 mph49%30.21 "HgN/A
8:50 PM68 °FPassing clouds.12 mph49%30.21 "HgN/A
8:20 PM68 °FPassing clouds.7 mph46%30.21 "HgN/A
7:50 PM70 °FPassing clouds.9 mph46%30.18 "HgN/A
7:20 PM70 °FPassing clouds.9 mph50%30.18 "HgN/A
6:50 PM72 °FScattered clouds.12 mph65%30.15 "HgN/A
6:20 PM73 °FScattered clouds.12 mph38%30.15 "HgN/A
5:50 PM75 °FScattered clouds.9 mph34%30.15 "HgN/A
5:20 PM75 °FScattered clouds.8 mph34%30.15 "HgN/A
4:50 PM75 °FScattered clouds.8 mph34%30.15 "HgN/A
4:20 PM75 °FBroken clouds.10 mph34%30.15 "HgN/A
3:50 PM77 °FBroken clouds.8 mph32%30.15 "HgN/A
3:20 PM75 °FScattered clouds.7 mph34%30.15 "HgN/A
2:50 PM75 °FScattered clouds.8 mph34%30.15 "HgN/A
2:20 PM75 °FScattered clouds.8 mph34%30.15 "HgN/A
1:50 PM75 °FScattered clouds.9 mph34%30.15 "HgN/A
1:20 PM75 °FScattered clouds.7 mph34%30.15 "HgN/A
12:50 PM75 °FScattered clouds.6 mph34%30.15 "HgN/A
12:20 PM73 °FScattered clouds.7 mph38%30.15 "HgN/A
11:50 AM72 °FBroken clouds.8 mph41%30.15 "HgN/A
11:20 AM72 °FBroken clouds.6 mph47%30.15 "HgN/A
10:50 AM70 °FScattered clouds.7 mph50%30.15 "HgN/A
10:20 AM70 °FScattered clouds.6 mph50%30.15 "HgN/A
9:50 AM70 °FBroken clouds.5 mph50%30.15 "HgN/A
9:20 AM68 °FPartly sunny.5 mph53%30.15 "HgN/A
8:50 AM68 °FPartly sunny.6 mph53%30.12 "HgN/A
8:20 AM66 °FScattered clouds.5 mph56%30.12 "HgN/A
Weather by CustomWeather, © 2016

See weather overviewHow to use our weather pages